Regional Weather Roundup
Issued by NWS

Home | Current Version | Previous Version | Text Only | Print | Product List | Glossary On
Versions: 1 2 3 4 5 6 7 8 9 10 11 12 13 14 15 16 17 18 19 20 21 22 23 24 25 26 27 28
000
ASUS44 KLIX 282311
RWRLA
LOUISIANA WEATHER ROUNDUP
NATIONAL WEATHER SERVICE NEW ORLEANS LA
600 PM CDT THU APR 28 2016

NOTE: "FAIR" INDICATES FEW OR NO CLOUDS BELOW 12,000 FEET WITH NO
      SIGNIFICANT WEATHER AND/OR OBSTRUCTIONS TO VISIBILITY.
      SKY/WX - SKY CONDITION AND SIGNIFICANT WEATHER.
      TMP - AIR TEMPERATURE.    DP   - DEWPOINT TEMPERATURE.
      RH  - RELATIVE HUMIDITY.  PRES - PRESSURE.
      HX  - HEAT INDEX.         WCI  - WIND CHILL INDEX.

*  THESE STATIONS ARE NOT NWS OR FAA STATIONS AND ARE NOT UNDER
   NWS QUALITY CONTROL.

LAZ040-048-061>063-065-066-069-290000-
SOUTHEAST LOUISIANA

CITY           SKY/WX    TMP DP  RH WIND       PRES   REMARKS
N.O. AUDUBON   NOT AVBL
N.O. INTL ARPT CLOUDY    81  74  79 SE9       29.91R
N.O. LAKEFRONT CLOUDY    73  73 100 SE12      29.92R
N.O. DOWNTOWN* CLOUDY    78  73  84 VRB7      29.92S
RESERVE*       FAIR      76  73  89 CALM      29.91R
SLIDELL        CLOUDY    77  72  84 S9        29.93R
BATON ROUGE    CLOUDY    81  69  67 SE10      29.89S
BOOTHVILLE     SUNNY     74  67  78 SE12G20   29.96R
BELLE CHASSE   PTSUNNY   77  74  90 SE9       29.91R
BOGALUSA*      FAIR      84  68  58 SW7       29.93R
GALLIANO*      CLOUDY    82  74  76 SE8       29.92S
NEW ROADS*     MOCLDY    79  71  74 SE9       29.89R
GONZALES*      FAIR      76  73  90 E3        29.88S
HAMMOND*       CLOUDY    79  70  73 SE8       29.91R
HOUMA*         MOSUNNY   81  75  83 S12       29.90F
PORT FOURCHON* MOCLDY    77  73  88 SE16G24   29.93S FOG

$$

LAZ041-044-053-054-290000-
SOUTHWEST LOUISIANA

CITY           SKY/WX    TMP DP  RH WIND       PRES   REMARKS
LAKE CHARLES   CLOUDY    83  74  74 SE16      29.83S
LAFAYETTE      CLOUDY    77  72  84 E8        29.88R THUNDER
PATTERSON      NOT AVBL
SALT POINT       N/A     79  76  90 SE9       29.87S
NEW IBERIA     CLOUDY    78  72  81 E13       29.89R
CHENAULT AIRPK PTSUNNY   82  75  78 E12       29.83F

$$

LAZ027-028-290000-
CENTRAL LOUISIANA

CITY           SKY/WX    TMP DP  RH WIND       PRES   REMARKS
FORT POLK      MOSUNNY   86  68  54 E10       29.83S
ALEXANDRIA INT SUNNY     87  66  49 E9        29.83S
ALEXANDRIA     SUNNY     90  67  46 E6        29.86R

$$

LAZ001-002-290000-
NORTHWEST LOUISIANA

CITY           SKY/WX    TMP DP  RH WIND       PRES   REMARKS
SHREVEPORT     MOSUNNY   86  58  38 SE8       29.84F
BARKSDALE AFB  SUNNY     84  59  42 E7        29.84F
DTN SHREVEPORT SUNNY     85  60  42 VRB7      29.84F

$$

LAZ014-016-290000-
NORTHEAST LOUISIANA

CITY           SKY/WX    TMP DP  RH WIND       PRES   REMARKS
MONROE         SUNNY     86  60  41 CALM      29.88S
TALLULAH       SUNNY     87  63  44 S5        29.88S

$$





USA.gov is the U.S. government's official web portal to all federal, state and local government web resources and services.